Theta_e
327 323 319 317 304 303 300 301 307 305 308 312 316 314 316 319 316 314 335 338 338 337 340 341 344 345 345 342 338 336 334 332 330 328 328 328 328 328 329 328 327 327 328 329 329 329 328 327 327
323 323 317 311 301 298 299 304 304 308 312 316 315 315 315 316 328 329 334 339 337 337 338 340 342 344 342 339 336 334 331 329 327 327 328 328 327 327 327 326 326 326 327 327 327 328 325 325 325
323 319 309 308 299 296 299 304 307 311 312 312 312 317 317 320 328 331 338 337 338 337 338 340 341 342 339 337 334 332 328 326 326 326 327 326 326 326 325 324 325 325 326 326 327 326 325 325 324
325 322 312 301 298 300 302 305 309 310 311 313 314 313 322 330 327 336 339 338 337 339 341 340 340 340 337 334 332 328 325 325 325 325 325 325 325 324 323 323 324 324 324 326 326 327 326 325 325
325 319 303 297 297 300 303 305 308 309 310 311 312 311 317 330 336 338 338 338 337 339 339 337 337 337 334 331 328 325 324 324 324 324 323 323 323 322 322 322 323 323 324 324 325 325 325 325 325
316 314 306 297 299 300 303 305 306 309 310 311 312 314 319 331 333 338 337 338 340 337 334 331 327 330 329 326 323 323 323 323 323 322 321 321 321 320 320 320 321 322 323 324 324 325 324 324 324
314 311 304 300 299 298 301 306 306 309 309 307 313 311 322 328 334 337 337 339 337 333 330 327 325 322 321 322 321 321 321 321 320 320 319 318 317 318 318 318 320 322 322 323 324 324 324 324 323
313 312 301 298 297 297 303 304 306 307 306 316 317 311 317 328 334 337 336 334 332 330 328 326 325 325 323 316 318 318 318 317 318 317 317 317 318 317 315 318 318 320 321 322 323 323 323 323 323
313 305 302 299 294 297 303 302 305 312 314 317 318 318 323 331 332 331 330 329 328 327 325 325 326 325 321 316 314 317 317 317 320 320 318 317 317 316 317 316 316 318 319 320 322 323 323 323 324
310 306 304 303 299 298 301 303 303 305 310 314 314 312 313 324 329 328 328 327 327 327 325 324 325 322 317 315 318 319 319 320 319 319 317 317 317 317 317 316 316 317 318 321 324 325 325 322 322
306 306 304 298 301 301 301 301 304 304 303 304 307 306 308 310 312 315 319 324 327 326 324 324 323 319 318 317 318 319 319 319 319 317 318 318 318 319 319 319 320 321 318 321 322 322 322 322 322
299 306 304 302 302 300 299 303 300 303 302 306 308 308 309 307 307 308 309 310 312 325 324 324 319 317 317 318 317 318 317 318 316 316 317 318 318 318 317 318 319 318 319 319 322 323 323 322 321
301 300 304 304 302 301 302 301 301 301 306 308 310 309 309 308 308 309 310 312 313 322 322 321 319 316 317 317 318 318 317 316 316 316 318 318 317 315 316 315 316 317 319 318 321 321 321 321 320
302 302 301 302 302 300 299 298 302 301 305 306 307 308 308 308 309 311 312 313 313 316 314 317 316 316 317 317 317 316 315 315 316 317 317 317 315 314 314 315 316 317 318 318 320 319 320 321 321
302 298 300 300 300 299 300 296 297 301 304 304 305 306 305 305 307 307 310 312 312 308 308 310 313 316 316 316 316 315 315 315 315 316 316 315 316 316 316 316 316 316 317 317 319 319 320 319 319
298 298 294 299 300 299 300 297 298 302 303 302 304 304 304 303 304 306 308 309 309 308 307 310 312 315 316 315 315 315 315 315 315 316 315 315 316 316 316 315 315 317 317 315 317 317 318 317 317
296 291 291 295 302 299 297 297 299 301 302 303 304 304 303 303 305 305 306 307 308 308 309 309 312 314 315 315 315 315 315 315 315 314 314 315 316 317 316 316 316 317 317 316 316 314 314 315 315
291 291 293 294 300 300 298 296 298 300 301 302 303 302 302 301 302 304 304 305 306 307 308 310 311 313 315 315 315 315 314 314 314 314 313 313 314 316 316 316 316 317 316 316 316 315 316 315 314
297 296 294 297 300 298 298 299 301 300 300 301 302 302 302 301 302 304 304 305 305 306 307 309 310 312 314 314 312 312 309 311 311 309 308 309 310 311 312 313 313 315 314 314 314 315 315 313 314
296 294 294 298 297 295 296 296 301 300 299 302 302 302 301 300 301 302 303 305 305 305 306 306 309 311 312 312 312 311 310 311 310 308 305 305 307 307 307 308 309 310 310 309 309 309 311 311 312
295 294 294 294 297 295 293 291 295 300 300 301 303 303 302 301 301 301 301 302 303 302 303 304 306 308 310 311 311 310 311 309 307 305 304 303 304 303 304 304 305 306 307 305 306 305 305 305 307
291 297 295 295 293 287 295 287 296 298 296 297 299 301 301 301 301 301 300 300 300 300 301 302 303 304 306 309 309 308 306 304 304 303 302 301 301 301 301 301 303 304 304 304 304 304 303 303 299
293 297 295 295 293 291 290 287 292 298 295 295 298 299 301 301 301 299 300 298 299 299 300 301 301 302 303 306 307 306 304 303 303 302 300 302 300 299 298 298 299 299 300 301 300 302 301 301 300
298 295 294 294 292 285 291 288 291 292 296 298 299 299 300 300 300 299 298 297 297 298 299 299 299 299 300 302 303 303 302 301 300 300 299 299 298 296 296 296 296 296 296 296 297 299 296 297 296
296 291 285 283 283 282 291 289 292 298 299 300 300 299 300 300 298 296 294 294 295 296 297 297 297 295 296 297 298 298 298 298 297 297 297 295 293 292 292 292 293 293 293 293 294 296 294 293 290
292 291 286 279 281 285 289 285 292 296 295 297 297 301 300 297 296 294 295 294 294 294 295 294 294 292 293 293 293 294 294 294 293 294 293 292 290 290 290 290 290 290 291 291 291 292 293 292 289
292 288 294 287 288 283 288 291 295 293 291 293 295 299 297 296 295 294 293 292 291 291 291 292 290 290 290 290 290 290 290 290 289 290 290 289 289 289 288 288 288 288 289 289 288 290 289 289 287
294 297 287 288 280 279 286 288 289 292 292 291 293 295 295 294 293 291 290 289 289 289 288 289 289 287 287 287 288 286 286 286 287 287 287 287 288 288 287 286 286 286 287 287 287 287 286 286 285
291 290 291 291 288 282 281 287 293 293 295 292 293 293 293 291 290 289 288 287 286 286 286 285 285 285 284 285 284 284 284 285 285 285 285 286 286 286 286 286 285 285 285 285 284 284 284 283 283
295 292 292 286 284 287 286 286 295 293 293 295 293 292 293 292 290 289 287 286 285 285 284 284 283 282 283 283 283 283 283 283 283 283 284 285 284 285 285 285 284 283 283 283 283 282 282 281 281
Wind_Speed
9 7 5 3 5 4 3 6 2 7 6 4 6 5 14 13 9 6 9 4 10 12 12 10 8 7 10 14 13 14 13 11 11 12 13 13 13 13 14 14 13 14 14 13 13 14 15 14 14
6 5 2 2 3 6 7 6 8 6 7 9 8 5 5 9 12 12 8 6 12 12 11 10 7 8 14 13 13 14 13 11 12 12 13 13 13 13 14 14 14 13 13 13 13 13 13 13 14
2 6 3 2 3 4 6 4 8 8 6 4 5 10 6 7 8 6 8 11 10 10 9 11 9 15 14 13 13 14 13 11 12 12 13 13 12 13 13 14 13 12 13 13 15 14 15 15 15
2 3 3 1 2 3 5 6 4 7 5 1 9 9 8 9 4 7 10 11 9 9 10 15 14 14 14 14 14 14 12 12 12 12 13 13 13 13 13 13 13 13 12 14 13 14 15 15 15
2 2 4 2 7 1 3 2 1 4 5 7 0 8 8 9 7 9 12 10 12 12 12 13 12 12 13 15 15 14 12 11 12 13 13 13 13 13 13 13 14 13 13 13 13 15 15 15 15
3 2 5 3 9 3 4 5 1 3 4 6 9 9 8 4 7 6 11 10 14 12 11 11 12 13 12 16 15 12 11 12 12 13 14 13 12 12 12 12 12 12 13 13 13 14 15 15 15
2 3 4 4 5 4 4 6 2 2 8 7 4 6 7 6 4 6 9 12 13 11 10 9 8 11 12 15 14 12 11 11 12 13 13 11 8 9 10 11 12 12 12 13 13 13 15 15 12
2 2 7 1 7 7 5 2 4 10 8 7 7 5 8 7 4 7 12 11 10 9 8 7 6 5 7 9 11 11 9 9 9 8 10 8 6 4 4 10 11 11 12 12 13 14 14 14 12
3 4 6 7 5 4 6 1 6 5 8 9 8 9 8 8 7 9 8 8 7 6 7 5 5 6 6 7 6 7 4 2 1 4 6 7 7 9 8 6 8 9 10 9 11 12 14 14 7
5 4 6 7 3 2 5 6 4 3 8 11 10 11 13 7 6 8 7 6 5 5 5 4 3 6 4 5 5 5 5 5 7 8 9 7 7 5 4 1 3 3 7 9 8 8 10 10 8
2 3 9 3 3 4 4 8 6 4 7 7 6 7 9 9 9 9 9 7 4 5 3 4 5 5 4 5 3 3 3 4 5 9 8 7 6 7 6 5 5 6 8 7 9 9 8 11 8
4 1 9 6 3 1 4 6 4 10 6 3 6 4 6 8 8 7 7 7 6 2 5 5 5 5 5 3 4 4 4 4 5 6 9 6 5 7 7 7 8 5 5 7 7 5 8 9 9
7 3 4 7 10 8 9 10 7 8 5 4 5 4 6 7 5 4 3 2 4 2 4 5 4 5 4 4 4 4 5 5 5 6 8 7 7 8 6 5 5 6 6 7 7 7 7 7 8
4 7 4 3 5 3 4 6 4 5 2 3 3 5 6 7 6 3 4 3 5 7 6 4 5 5 5 5 5 5 5 5 5 6 7 9 7 5 4 4 5 5 6 7 7 7 7 6 6
3 7 4 2 1 2 7 3 4 6 4 2 4 5 5 6 6 5 5 4 8 6 5 5 4 5 5 5 5 5 5 5 5 5 8 8 6 5 4 4 5 6 6 8 7 8 7 6 6
4 2 5 7 1 0 4 12 8 7 8 4 3 4 4 5 4 4 5 5 7 7 6 4 2 5 5 5 5 5 5 5 5 6 5 9 8 7 6 5 5 6 6 7 7 7 7 7 7
2 3 7 5 7 3 7 6 7 6 7 7 6 4 4 3 4 5 5 5 6 6 5 4 3 5 5 5 5 6 6 5 7 6 7 8 9 8 5 5 6 7 6 6 7 6 7 8 7
6 3 7 11 10 11 12 12 5 6 8 10 8 6 6 4 1 4 4 5 6 6 5 4 2 4 4 3 4 4 5 7 6 7 7 10 8 9 7 6 7 6 6 7 8 8 6 8 9
4 8 7 10 3 9 18 17 16 11 11 12 11 9 8 8 4 2 4 4 6 6 5 5 4 3 3 2 2 3 5 5 6 6 10 10 9 10 9 7 8 8 8 9 10 8 8 7 10
3 4 6 3 4 3 10 19 18 13 14 14 14 13 11 8 8 5 3 3 5 5 6 5 5 5 3 2 3 4 5 5 5 6 8 9 10 11 10 9 8 9 7 10 11 11 6 7 9
7 6 5 6 10 3 5 12 19 15 16 14 12 11 12 12 12 9 7 4 5 5 5 5 5 5 3 5 5 4 6 4 4 5 6 9 10 11 11 11 9 9 8 7 9 10 12 7 7
8 3 7 6 7 5 11 7 14 22 19 18 16 16 16 15 12 10 10 6 5 5 4 5 5 4 4 3 3 3 2 4 3 5 5 7 10 11 11 10 9 10 8 10 8 9 9 9 8
6 3 4 6 8 8 8 7 7 10 21 21 21 20 18 17 15 13 10 7 4 5 4 4 4 5 5 5 5 5 6 5 4 3 5 7 8 11 12 11 11 10 8 9 11 11 10 7 7
3 2 2 4 6 7 15 9 7 8 19 19 20 21 20 18 15 13 9 9 6 5 4 4 5 6 5 6 7 7 6 5 4 3 4 5 6 7 11 11 10 9 9 9 9 10 12 9 10
9 6 2 5 5 6 2 12 15 8 10 14 17 19 19 16 15 14 12 10 9 7 6 5 5 6 5 8 8 7 7 8 6 5 5 6 6 7 10 10 9 8 10 10 9 9 11 11 10
18 15 6 5 4 6 4 10 5 3 6 2 6 17 16 16 14 13 12 9 7 7 6 6 6 7 6 7 8 6 6 5 6 6 6 7 7 7 9 9 10 11 10 10 10 8 8 10 10
14 20 15 14 7 5 9 12 11 5 2 4 6 15 16 16 15 13 11 9 8 6 6 6 6 7 7 8 8 7 6 7 7 8 8 7 8 7 9 10 10 10 10 9 10 8 9 9 9
9 9 13 8 5 8 9 12 11 7 10 9 12 15 16 16 15 13 11 10 9 7 7 7 7 7 7 9 8 6 6 6 8 8 9 9 8 8 8 9 9 9 9 9 10 8 10 10 8
9 12 12 9 13 4 6 4 3 5 2 13 14 15 16 16 15 14 11 10 9 8 8 8 8 9 7 8 8 8 7 7 8 8 9 8 8 8 9 9 9 9 9 9 9 10 10 11 11
13 22 21 11 7 13 13 19 6 3 2 4 11 13 15 15 15 13 13 12 12 11 10 9 9 9 7 8 8 8 7 8 8 8 8 8 8 8 8 8 9 8 9 10 10 11 10 11 11
Wind_Direction
314 302 301 304 242 235 159 137 34 146 146 72 26 3 80 40 15 51 129 73 130 130 128 140 142 144 121 98 93 80 69 54 47 36 32 26 20 18 16 14 13 7 5 4 8 6 7 3 357
346 307 276 103 269 216 136 116 173 92 92 108 88 126 77 75 73 115 122 146 144 125 149 136 141 129 99 94 86 79 70 54 43 38 31 26 19 17 14 13 7 4 5 5 8 6 4 3 356
183 22 32 27 287 278 107 138 98 108 112 113 107 36 52 88 60 73 105 133 124 126 119 116 110 101 100 89 80 77 67 55 45 38 31 26 23 20 16 13 12 9 11 9 16 3 5 358 357
182 84 33 209 260 69 42 102 98 140 114 74 111 85 95 45 35 75 125 121 116 78 79 98 95 99 98 92 80 74 63 56 43 37 33 26 20 18 16 14 11 16 13 16 10 4 8 1 357
87 135 63 16 174 163 110 55 84 164 111 122 90 102 83 59 77 136 127 135 103 97 97 92 88 93 94 86 78 70 62 52 44 35 31 28 20 16 14 15 12 13 14 13 6 10 3 359 356
120 274 155 175 172 137 91 21 305 202 108 101 103 104 72 50 107 138 134 113 108 101 94 88 73 73 77 79 73 66 58 47 41 34 28 25 20 17 13 13 11 15 12 10 7 6 2 357 355
192 192 138 151 152 151 59 356 5 68 140 62 1 85 91 104 107 138 113 98 100 98 96 93 97 101 79 68 67 59 56 49 39 31 25 20 20 18 16 6 11 10 11 5 3 357 354 350 350
249 122 142 134 199 103 43 60 10 7 76 110 346 102 143 120 110 94 83 85 93 96 94 97 95 77 77 84 68 64 50 48 47 39 16 336 291 5 61 8 15 6 4 359 355 352 348 334 322
284 170 164 167 172 91 19 173 68 29 87 59 37 48 14 104 104 101 105 104 100 89 88 73 70 79 84 84 96 120 102 117 34 21 20 354 20 18 19 42 4 0 354 340 346 345 328 311 333
254 211 160 146 21 110 50 32 15 180 108 95 87 42 24 35 148 134 145 123 112 109 93 83 96 85 79 77 66 56 40 32 30 19 15 18 21 13 330 2 286 277 321 278 322 341 332 2 3
347 241 136 135 1 319 115 73 8 127 88 41 50 20 27 39 42 47 36 39 123 119 111 127 94 89 80 67 54 43 36 24 26 28 18 25 28 14 14 9 14 3 13 357 356 4 6 3 9
81 49 141 140 32 312 81 95 73 43 60 26 63 53 59 51 42 29 17 6 355 158 111 107 95 93 71 71 56 57 47 25 34 30 22 22 28 19 18 9 10 0 352 357 355 1 355 4 10
131 105 153 110 84 100 113 89 98 67 54 88 93 85 73 63 57 49 23 44 11 76 117 114 101 87 81 66 70 52 42 39 39 41 33 20 33 27 13 15 358 355 350 357 357 359 358 1 11
127 130 115 145 148 138 102 99 156 90 40 88 107 82 60 50 25 52 29 38 88 67 31 21 89 79 73 75 61 59 41 49 54 50 40 35 36 32 15 3 357 356 351 350 351 359 358 356 12
14 136 131 92 124 133 128 145 154 137 137 145 127 94 66 52 43 36 27 53 73 74 73 29 73 86 83 77 65 65 61 58 56 53 43 45 35 10 353 0 3 2 359 352 348 3 2 2 14
83 40 180 173 203 327 203 232 153 166 162 171 147 108 71 62 55 58 52 63 80 86 81 74 98 97 80 74 70 67 59 64 65 50 36 34 22 7 14 20 3 351 5 9 2 3 1 5 10
207 179 201 197 208 159 190 237 151 183 177 187 188 151 122 103 79 73 70 68 73 76 82 72 71 101 99 89 85 82 73 66 59 49 39 22 19 16 24 15 4 356 1 3 359 7 11 3 0
185 193 206 214 191 224 217 239 171 193 208 202 196 181 164 150 101 84 85 85 73 72 70 78 70 111 109 113 109 96 90 69 59 49 43 27 17 18 23 20 18 16 18 10 11 9 10 16 351
304 211 193 225 229 246 232 239 217 193 215 205 203 196 196 161 152 126 108 99 97 89 75 68 80 79 183 172 123 88 76 77 67 55 44 36 28 24 26 23 15 9 20 16 8 1 8 22 2
215 211 233 189 132 210 259 251 248 197 222 216 206 198 194 176 176 162 145 125 100 92 83 67 64 70 87 139 91 94 106 77 69 69 52 39 36 33 36 28 21 22 26 25 21 15 357 19 29
224 242 237 255 179 240 308 261 242 224 223 223 222 201 198 196 186 172 168 158 127 92 72 69 66 63 93 127 122 114 114 107 85 55 55 41 40 39 38 35 31 27 31 26 26 23 29 28 22
232 204 257 239 203 245 178 285 225 215 218 216 211 203 204 200 192 189 166 167 151 118 92 86 79 72 48 67 115 147 161 108 77 67 64 53 39 44 41 40 35 36 38 35 29 34 39 33 25
244 107 203 203 221 282 213 263 255 216 211 216 213 206 202 201 188 195 174 157 154 134 122 102 95 77 61 72 95 110 101 98 87 85 77 61 60 45 44 39 36 37 36 40 40 39 44 40 51
119 172 182 255 256 254 233 219 247 194 224 226 209 208 200 195 186 184 167 153 161 150 141 125 117 90 76 85 75 90 109 113 111 104 78 68 57 48 42 44 45 42 43 43 44 47 47 44 42
205 185 228 219 205 249 27 219 255 237 216 232 214 200 196 187 185 176 175 169 170 166 157 137 126 99 89 85 84 86 90 95 91 83 74 76 64 52 45 46 44 43 46 48 48 50 54 46 49
205 205 206 237 235 308 96 247 255 307 352 108 296 184 179 181 187 178 176 166 171 170 156 145 139 118 94 94 87 82 90 101 93 90 88 79 69 60 54 55 53 49 46 51 50 46 55 52 51
195 220 233 285 274 272 246 245 260 196 215 218 185 168 176 183 183 179 165 161 174 171 157 143 131 120 116 102 96 90 96 100 100 92 86 78 74 73 63 59 56 52 54 53 59 53 53 51 55
266 211 208 224 244 244 252 262 262 232 221 197 186 187 181 180 178 177 171 173 161 164 151 144 137 128 121 106 102 102 89 91 95 94 89 85 82 74 69 65 62 58 54 58 57 56 55 54 50
194 221 219 230 231 256 290 262 32 12 331 201 198 194 188 183 183 175 172 168 161 162 165 152 143 131 117 118 124 114 113 109 98 94 90 88 88 80 75 72 68 62 60 56 61 62 57 57 56
244 220 215 220 213 233 261 264 204 130 117 195 198 193 189 185 185 179 172 169 173 168 166 160 145 131 143 134 124 127 129 114 103 97 99 96 92 84 81 77 72 67 62 58 60 61 58 57 57